Terug naar catalogus

ARIANE 44L DEB

SPELDA

ActiefHEO
NORAD 21818·DEBRIS·🇫🇷 France

Gelanceerd Dec 16, 1991 vanaf Guiana Space Centre

Loading…

Volgende Passages (komende 24 uur)

TLE

VersSource: Space-Track

Epoch: Sep 14, 2026, 23:07 UTC

1 21818U 91084D   26257.96323662  .00014974  00000-0  38063-2 0  9998
2 21818   3.6047 237.7582 5853449  95.8279 329.6401  4.24636455368599

Volg ARIANE 44L DEB in realtime met AllMySat

Download on the App Store